Home > Weather > Delmenhorst > Past weeks

Flag for Germany Past Weather in Delmenhorst, Lower Saxony, Germany — Yesterday and Last 2 Weeks

Now
68 °F

Broken clouds.


Feels Like: 68 °F
Forecast: 59 / 71 °F
Wind: 13 mph from Southeast

Location: Bremen Airport

Current Time: Jul 28, 2016 at 6:38:08 PM

Latest Report: Jul 28, 2016 at 6:20 PM


Visibility: N/A

Pressure: 29.89 "Hg

Humidity: 83%

Dew Point: 63 °F

Location of DelmenhorstLocation

Past Weather in Delmenhorst — Graph

°F

Delmenhorst Temperature Yesterday

Maximum temperature yesterday: 77 °F (at 1:50 PM)
Minimum temperature yesterday: 63 °F (at 5:20 AM)
Average temperature yesterday: 69 °F

High & Low Weather Summary for the Past Weeks

 TemperatureHumidityPressure
High88 °F (Jul 20, 3:50 PM)100% (Jul 14, 6:20 PM)30.24 "Hg (Jul 14, 6:20 PM)
Low52 °F (Jul 14, 6:20 AM)33% (Jul 20, 4:50 PM)29.86 "Hg (Jul 20, 7:50 PM)
Average68 °F75%30.07 "Hg
* Reported Jul 13 6:50 PM — Jul 28 5:20 PM, Delmenhorst, Weather by CustomWeather, © 2016

Note: Actual official high and low records may vary slightly from our data, if they occured in-between our weather recording intervals... More about our weather records

Advertising

Delmenhorst Weather History for the Previous 24 Hours

Scroll right to see more
 ConditionsComfort  
Time TempWeatherWind HumidityBarometerVisibility
5:20 PM
Thu, Jul 28
72 °FBroken clouds.8 mph65%29.92 "HgN/A
4:50 PM72 °FBroken clouds.7 mph69%29.92 "HgN/A
4:20 PM73 °FScattered clouds.7 mph65%29.92 "HgN/A
3:50 PM73 °FScattered clouds.7 mph57%29.95 "HgN/A
3:20 PM72 °FScattered clouds.7 mph53%29.95 "HgN/A
2:50 PM72 °FPartly sunny.7 mph57%29.95 "HgN/A
2:20 PM72 °FBroken clouds.6 mph53%29.98 "HgN/A
1:50 PM72 °FPartly sunny.7 mph53%29.98 "HgN/A
1:20 PM73 °FScattered clouds.5 mph53%29.98 "HgN/A
12:50 PM72 °FScattered clouds.3 mph57%29.98 "HgN/A
12:20 PM70 °FScattered clouds.5 mph57%29.98 "HgN/A
11:50 AM70 °FScattered clouds.6 mph60%29.98 "HgN/A
11:20 AM70 °FScattered clouds.6 mph60%30.01 "HgN/A
10:50 AM68 °FScattered clouds.3 mph60%30.01 "HgN/A
10:20 AM68 °FScattered clouds.2 mph60%30.01 "HgN/A
9:50 AM66 °FScattered clouds.3 mph68%30.01 "HgN/A
9:20 AM64 °FScattered clouds.6 mph73%30.01 "HgN/A
8:50 AM64 °FScattered clouds.5 mph78%30.01 "HgN/A
8:20 AM64 °FPartly sunny.6 mph78%30.01 "HgN/A
7:50 AM63 °FBroken clouds.6 mph83%29.98 "HgN/A
7:20 AM63 °FBroken clouds.6 mph88%29.98 "HgN/A
6:50 AM63 °FScattered clouds.3 mph88%29.98 "HgN/A
6:20 AM59 °FPassing clouds.5 mph94%29.98 "HgN/A
5:50 AM61 °FPassing clouds.6 mph88%29.98 "HgN/A
5:20 AM63 °FPassing clouds.6 mph88%29.98 "HgN/A
4:50 AM63 °FPartly cloudy.10 mph83%29.98 "HgN/A
4:20 AM64 °FPartly cloudy.8 mph88%29.98 "HgN/A
3:50 AM64 °FPartly cloudy.7 mph88%29.98 "HgN/A
3:20 AM64 °FPartly cloudy.7 mph88%29.98 "HgN/A
2:50 AM64 °FPartly cloudy.6 mph88%29.98 "HgN/A
2:20 AM64 °FPartly cloudy.7 mph88%29.98 "HgN/A
1:50 AM64 °FPartly cloudy.9 mph88%29.98 "HgN/A
1:20 AM64 °FPartly cloudy.10 mph88%29.98 "HgN/A
12:50 AM64 °FPassing clouds.13 mph88%29.98 "HgN/A
12:20 AM64 °FPassing clouds.10 mph88%29.98 "HgN/A
11:50 PM
Wed, Jul 27
64 °FPartly cloudy.5 mph88%29.98 "HgN/A
11:20 PM64 °FPartly cloudy.8 mph88%29.98 "HgN/A
10:50 PM64 °FPassing clouds.5 mph83%29.98 "HgN/A
10:20 PM66 °FPartly sunny.5 mph78%29.98 "HgN/A
9:50 PM66 °FBroken clouds.6 mph78%29.98 "HgN/A
9:20 PM66 °FPartly sunny.8 mph78%29.98 "HgN/A
8:50 PM68 °FLight rain. Broken clouds.12 mph69%29.95 "HgN/A
8:20 PM70 °FSunny.13 mph64%29.95 "Hg10 mi
7:50 PM72 °FSunny.14 mph57%29.95 "Hg10 mi
7:20 PM72 °FBroken clouds.15 mph57%29.95 "HgN/A
6:50 PM73 °FSunny.12 mph50%29.95 "Hg10 mi
6:20 PM75 °FPartly sunny.13 mph50%29.95 "HgN/A
Weather by CustomWeather, © 2016

See weather overviewHow to use our weather pages